User: anonymous   Login
Location: Pasarilla del Rebollar
(40.6790°N, 5.0062°W)
Time: 17:33:01
(UTC+00:00)
Language:

Meteor 1-18 Rocket - Orbit

View from above orbital plane
View from above orbital plane
View from above satellite
View from above satellite

Ground track
Ground track

The orbit is defined by the following mean orbital elements,

1 07364U          26159.19764697 +.00000000 +00000-0 +60477-4 0 00003
2 07364  81.2319 213.3761 0048423 291.7069  67.8948 14.06460098    04
Epoch (UTC): 08 June 2026 04:44:36
Eccentricity: 0.0048423
inclination: 81.2319°
perigee height: 836 km
apogee height: 907 km
right ascension of ascending node: 213.3761°
argument of perigee: 291.7069°
revolutions per day: 14.06460098
mean anomaly at epoch: 67.8948°

The dashed part of the orbit path shows where the satellite is in the earth's shadow,  

DLR